When you browse on this site, cookies collect data to enhance your experience and personalize the content and advertising you see.
Visit our Privacy Policy to learn more. By continuing to use the site, you agree to this use of cookies and data.
  • In United Kingdom
  • List of Countries
  • For 7 days
  • Water Temperature
  • Satellite Maps
  • Weather Map
  • Weather Widgets
  • user-avatar
    Login

    Hourly Weather Newcastle

    Today, 22 February, Friday

    Time Temperature Precipitation Wind Pressure Humidity
    00:00 +21°C° 0.4 mm 4 mps 762 mmHg 94%
    01:00 +21°C° 0.4 mm 5 mps 762 mmHg 94%
    02:00 +20°C° 0.4 mm 5 mps 762 mmHg 95%
    03:00 +20°C° 0.4 mm 5 mps 762 mmHg 95%
    04:00 +20°C° 0 mm 4 mps 762 mmHg 95%
    05:00 +20°C° 0.3 mm 5 mps 762 mmHg 94%
    06:00 +20°C° 0.3 mm 5 mps 762 mmHg 93%
    07:00 +21°C° 0.3 mm 6 mps 763 mmHg 91%
    08:00 +22°C° 0.2 mm 6 mps 763 mmHg 81%
    09:00 +23°C° 0.2 mm 7 mps 763 mmHg 71%
    10:00 +26°C° 0 mm 7 mps 763 mmHg 58%
    11:00 +26°C° 0.1 mm 7 mps 763 mmHg 56%
    12:00 +27°C° 0.1 mm 7 mps 763 mmHg 54%
    13:00 +27°C° 0.1 mm 7 mps 762 mmHg 52%
    14:00 +26°C° 0.1 mm 7 mps 762 mmHg 55%
    15:00 +24°C° 0.1 mm 7 mps 762 mmHg 59%
    16:00 +24°C° 0.1 mm 7 mps 762 mmHg 63%
    17:00 +23°C° 0.1 mm 7 mps 763 mmHg 66%
    18:00 +22°C° 0.1 mm 6 mps 763 mmHg 70%
    19:00 +21°C° 0.1 mm 6 mps 764 mmHg 73%
    20:00 +21°C° 0.1 mm 6 mps 764 mmHg 75%
    21:00 +20°C° 0.1 mm 6 mps 764 mmHg 77%
    22:00 +20°C° 0.1 mm 6 mps 764 mmHg 79%
    23:00 +20°C° 0.1 mm 6 mps 764 mmHg 80%

    Tomorrow, 23 February, Saturday

    Time Temperature Precipitation Wind Pressure Humidity
    00:00 +20°C° 0.1 mm 6 mps 764 mmHg 81%
    01:00 +20°C° 0.1 mm 6 mps 763 mmHg 81%
    02:00 +19°C° 0.1 mm 6 mps 763 mmHg 82%
    03:00 +19°C° 0.1 mm 6 mps 763 mmHg 84%
    04:00 +19°C° 0.1 mm 6 mps 763 mmHg 85%
    05:00 +19°C° 0.2 mm 6 mps 763 mmHg 84%
    06:00 +20°C° 0.2 mm 6 mps 764 mmHg 82%
    07:00 +20°C° 0.2 mm 6 mps 764 mmHg 81%
    08:00 +22°C° 0.1 mm 7 mps 764 mmHg 72%
    09:00 +23°C° 0.1 mm 7 mps 764 mmHg 64%
    10:00 +24°C° 0.1 mm 7 mps 765 mmHg 56%
    11:00 +26°C° 0.1 mm 7 mps 765 mmHg 55%
    12:00 +26°C° 0.1 mm 7 mps 765 mmHg 53%
    13:00 +26°C° 0.1 mm 8 mps 764 mmHg 52%
    14:00 +26°C° 0.1 mm 7 mps 765 mmHg 56%
    15:00 +24°C° 0.1 mm 7 mps 765 mmHg 59%
    16:00 +24°C° 0.1 mm 7 mps 765 mmHg 62%
    17:00 +23°C° 0.1 mm 7 mps 765 mmHg 67%
    18:00 +22°C° 0.1 mm 7 mps 765 mmHg 71%
    19:00 +21°C° 0.1 mm 6 mps 765 mmHg 75%
    20:00 +21°C° 0.1 mm 6 mps 766 mmHg 75%
    21:00 +21°C° 0.1 mm 7 mps 766 mmHg 75%
    22:00 +21°C° 0.1 mm 7 mps 766 mmHg 75%
    23:00 +20°C° 0.1 mm 7 mps 766 mmHg 77%

    Day after tomorrow, 24 February, Sunday

    Time Temperature Precipitation Wind Pressure Humidity
    00:00 +20°C° 0.1 mm 7 mps 766 mmHg 79%
    01:00 +20°C° 0.1 mm 7 mps 766 mmHg 80%
    02:00 +20°C° 0.1 mm 7 mps 766 mmHg 79%
    03:00 +18°C° 0.1 mm 7 mps 766 mmHg 78%
    04:00 +18°C° 0.1 mm 7 mps 766 mmHg 76%
    05:00 +18°C° 0.1 mm 7 mps 766 mmHg 76%
    06:00 +18°C° 0.1 mm 7 mps 767 mmHg 75%
    07:00 +20°C° 0.1 mm 7 mps 768 mmHg 74%
    08:00 +20°C° 0.1 mm 7 mps 768 mmHg 73%
    09:00 +21°C° 0.1 mm 7 mps 768 mmHg 71%
    10:00 +21°C° 0.1 mm 6 mps 769 mmHg 70%
    11:00 +21°C° 0.1 mm 6 mps 769 mmHg 69%
    12:00 +22°C° 0.1 mm 6 mps 768 mmHg 68%
    13:00 +22°C° 0.1 mm 6 mps 768 mmHg 67%
    14:00 +22°C° 0.1 mm 6 mps 768 mmHg 68%
    15:00 +22°C° 0.1 mm 6 mps 768 mmHg 69%
    16:00 +21°C° 0.1 mm 6 mps 768 mmHg 70%
    17:00 +21°C° 0.1 mm 6 mps 768 mmHg 72%
    18:00 +20°C° 0.1 mm 6 mps 768 mmHg 75%
    19:00 +19°C° 0.1 mm 6 mps 769 mmHg 78%
    20:00 +19°C° 0.1 mm 5 mps 769 mmHg 79%
    21:00 +19°C° 0.1 mm 5 mps 769 mmHg 80%
    22:00 +19°C° 0.1 mm 5 mps 770 mmHg 81%
    23:00 +19°C° 0.2 mm 5 mps 769 mmHg 82%

    25 February, Monday

    Time Temperature Precipitation Wind Pressure Humidity
    00:00 +19°C° 0.2 mm 5 mps 769 mmHg 83%
    01:00 +19°C° 0.2 mm 4 mps 769 mmHg 85%
    02:00 +19°C° 0.2 mm 4 mps 768 mmHg 86%
    03:00 +19°C° 0.2 mm 4 mps 768 mmHg 87%
    04:00 +19°C° 0.2 mm 4 mps 768 mmHg 88%
    05:00 +19°C° 0.1 mm 4 mps 768 mmHg 86%
    06:00 +19°C° 0.1 mm 4 mps 769 mmHg 85%
    07:00 +20°C° 0.1 mm 4 mps 769 mmHg 83%
    08:00 +21°C° 0.1 mm 4 mps 769 mmHg 75%
    09:00 +23°C° 0.1 mm 4 mps 769 mmHg 67%
    10:00 +25°C° 0.1 mm 5 mps 769 mmHg 58%
    11:00 +26°C° 0 mm 5 mps 769 mmHg 55%
    12:00 +27°C° 0 mm 5 mps 769 mmHg 52%
    13:00 +27°C° 0 mm 5 mps 768 mmHg 49%
    14:00 +27°C° 0.1 mm 5 mps 768 mmHg 53%
    15:00 +26°C° 0.1 mm 5 mps 768 mmHg 56%
    16:00 +25°C° 0.1 mm 4 mps 767 mmHg 60%
    17:00 +23°C° 0.1 mm 4 mps 768 mmHg 68%
    18:00 +21°C° 0.1 mm 3 mps 768 mmHg 77%
    19:00 +20°C° 0.1 mm 3 mps 768 mmHg 85%
    20:00 +19°C° 0.1 mm 3 mps 768 mmHg 87%
    21:00 +19°C° 0.1 mm 3 mps 768 mmHg 89%
    22:00 +19°C° 0.1 mm 2 mps 768 mmHg 91%
    23:00 +18°C° 0.1 mm 2 mps 768 mmHg 92%

    26 February, Tuesday

    Time Temperature Precipitation Wind Pressure Humidity
    00:00 +18°C° 0.1 mm 2 mps 768 mmHg 92%
    01:00 +18°C° 0.1 mm 2 mps 767 mmHg 93%
    02:00 +19°C° 0.1 mm 1 mps 767 mmHg 94%
    03:00 +19°C° 0.1 mm 1 mps 766 mmHg 95%
    04:00 +19°C° 0.1 mm 1 mps 766 mmHg 95%
    05:00 +19°C° 0.3 mm 1 mps 766 mmHg 94%
    06:00 +20°C° 0.3 mm 1 mps 766 mmHg 93%
    07:00 +21°C° 0.3 mm 1 mps 767 mmHg 91%
    08:00 +23°C° 0.2 mm 1 mps 767 mmHg 82%
    09:00 +24°C° 0.2 mm 2 mps 767 mmHg 73%
    10:00 +26°C° 0.2 mm 2 mps 767 mmHg 63%
    11:00 +27°C° 0 mm 3 mps 766 mmHg 57%
    12:00 +28°C° 0 mm 3 mps 766 mmHg 51%
    13:00 +29°C° 0 mm 4 mps 765 mmHg 45%
    14:00 +29°C° 0 mm 4 mps 764 mmHg 46%
    15:00 +29°C° 0 mm 4 mps 764 mmHg 46%
    16:00 +29°C° 0 mm 4 mps 764 mmHg 47%
    17:00 +27°C° 0 mm 4 mps 764 mmHg 57%
    18:00 +25°C° 0 mm 4 mps 764 mmHg 67%
    19:00 +22°C° 0 mm 3 mps 765 mmHg 77%
    20:00 +21°C° 0 mm 3 mps 765 mmHg 81%
    21:00 +21°C° 0 mm 3 mps 765 mmHg 85%
    22:00 +20°C° 0 mm 3 mps 765 mmHg 89%
    23:00 +20°C° 0 mm 3 mps 765 mmHg 91%

    27 February, Wednesday

    Time Temperature Precipitation Wind Pressure Humidity
    00:00 +20°C° 0 mm 2 mps 765 mmHg 93%
    01:00 +20°C° 0 mm 2 mps 764 mmHg 95%
    02:00 +20°C° 0 mm 1 mps 764 mmHg 96%
    03:00 +20°C° 0 mm 1 mps 764 mmHg 97%
    04:00 +18°C° 0 mm 0 mps 764 mmHg 97%
    05:00 +21°C° 0.1 mm 1 mps 764 mmHg 95%
    06:00 +21°C° 0.1 mm 1 mps 765 mmHg 93%
    07:00 +22°C° 0.1 mm 1 mps 765 mmHg 91%
    08:00 +24°C° 0.2 mm 1 mps 765 mmHg 81%
    09:00 +26°C° 0.2 mm 1 mps 766 mmHg 72%
    10:00 +28°C° 0.2 mm 2 mps 766 mmHg 62%
    11:00 +29°C° 0.1 mm 2 mps 765 mmHg 59%
    12:00 +29°C° 0.1 mm 3 mps 765 mmHg 57%
    13:00 +30°C° 0.1 mm 3 mps 765 mmHg 54%
    14:00 +29°C° 0 mm 4 mps 765 mmHg 55%
    15:00 +29°C° 0 mm 4 mps 765 mmHg 56%
    16:00 +29°C° 0 mm 4 mps 765 mmHg 57%
    17:00 +27°C° 0 mm 3 mps 765 mmHg 65%
    18:00 +25°C° 0 mm 3 mps 766 mmHg 72%
    19:00 +24°C° 0 mm 2 mps 767 mmHg 80%
    20:00 +23°C° 0 mm 2 mps 767 mmHg 83%
    21:00 +21°C° 0 mm 2 mps 767 mmHg 87%
    22:00 +22°C° 0 mm 1 mps 768 mmHg 90%
    23:00 +21°C° 0.1 mm 1 mps 768 mmHg 91%
    Show more